USTRUNKL

Guest
Details From USTR - Roschino
To UNKL - Yemelyanovo
Flight Number -
Tags Generated
Created
Modified
Stats Distance 894 nm / 1,655 km
Max Altitude 0 ft / 0 m
Waypoints 5
Social Downloads 0
Likes 0
Share VATSIM

Download

Looking for another format? Having issues loading an existing format? Contact us
Advertisement - Login to hide

Notes

Generated

Route

USTR MINOR SP AJ UNKL

ID Type Via Altitude Latitude Longitude Leg Dist Tot Dist Heading (true) Name
O USTR APT - 0 ft / 0 m 57.17551˚ 65.29199˚ - 0 nm - -
MINOR FIX - 0 ft / 0 m 57.25000˚ 79.06667˚ 447 nm 447 nm 84° / 95° -
SP NDB - 0 ft / 0 m 56.70000˚ 85.35000˚ 208 nm 655 nm 96° / 102° -
AJ NDB - 0 ft / 0 m 56.19333˚ 92.40667˚ 236 nm 891 nm 94° / 100° KRASNOYARSK NDB
O UNKL APT - 0 ft / 0 m 56.17948˚ 92.46587˚ 2 nm 893 nm 113° / 113° -

Altitude Profile

Advertisement - Login to hide

Weather


0- 5 10 15 20 25 30 35+ Temperature / ° C

Clouds and Precipitation
Forecast for 2018-05-25 00:00 UTC. Updated 4 hours ago

Ground ~20,000 ft ~40,000 ft Winds

USTR

Details ICAO USTR (TJM)
Name Roschino
Region Russia
Timezone Asia/Yekaterinburg (UTC+5.0)
Stats Elevation 377 ft / 115 m (AMSL)
Location 57.180416° 65.314677°
Runways 3
Magnetic Variation 15.006° E

METAR

USTR 250330Z 13003MPS 9999 SCT053CB 11/02 Q1012 R21/190063 NOSIG RMK QFE749/0999

Decode

TAF

TAF USTR 250148Z 2503/2603 10003MPS 9999 BKN020CB TEMPO 2506/2518 5000 -SHRA BKN015CB BECMG 2510/2512 35005MPS

Decode

Departure Runways

ID Width Length Bearing (true) Bearing (mag) Surface Threshold Offset Overrun Length
03 148 ft / 45 m 9,827 ft / 2,995 m 47.68° 32.67° Asphalt 0 ft / 0 m 0 ft / 0 m
03L 328 ft / 100 m 6,705 ft / 2,044 m 47.58° 32.57° Grass 0 ft / 0 m 0 ft / 0 m
12 164 ft / 50 m 8,820 ft / 2,688 m 134.79° 119.78° Asphalt 0 ft / 0 m 0 ft / 0 m
21 148 ft / 45 m 9,827 ft / 2,995 m 227.71° 212.70° Asphalt 0 ft / 0 m 0 ft / 0 m
21R 328 ft / 100 m 6,705 ft / 2,044 m 227.60° 212.59° Grass 0 ft / 0 m 0 ft / 0 m
30 164 ft / 50 m 8,820 ft / 2,688 m 314.81° 299.80° Asphalt 0 ft / 0 m 0 ft / 0 m

UNKL

Details ICAO UNKL (KJA)
Name YEMELYANOVO
Region Russia
Timezone Asia/Krasnoyarsk (UTC+7.0)
Stats Elevation 942 ft / 287 m (AMSL)
Location 56.172946° 92.493276°
Runways 1
Magnetic Variation 4.106° E

METAR

UNKL 250330Z 20005MPS 160V260 CAVOK 10/M03 Q1018 R29/CLRD65 NOSIG RMK QFE738

Decode

TAF

TAF UNKL 250152Z 2503/2603 18006G13MPS 9999 SCT030 BECMG 2509/2511 SCT020CB TEMPO 2512/2524 3500 -SHRA BKN013CB BECMG 2600/2602 22003G10MPS

Decode

Destination Runways

ID Width Length Bearing (true) Bearing (mag) Surface Threshold Offset Overrun Length
11 197 ft / 60 m 12,113 ft / 3,692 m 113.16° 109.05° Asphalt 0 ft / 0 m 235 ft / 72 m
29 197 ft / 60 m 12,113 ft / 3,692 m 293.21° 289.10° Asphalt 0 ft / 0 m 215 ft / 66 m